London, United Kingdom

4:31 PM GMT on February 25, 2017 (GMT +0000)
Heathrow Airport

Weather History for EGLL - October, 2010

Change the Weather History Date:

Saturday, October 16, 2010

  Actual Average Record
Temperature  
Mean Temperature 49 °F -  
Max Temperature 56 °F 54 °F 68 °F (2006)
Min Temperature 42 °F 42 °F 41 °F (2011)
Degree Days  
Heating Degree Days 16    
Moisture  
Dew Point 42 °F    
Average Humidity 78    
Maximum Humidity 93    
Minimum Humidity 57    
Precipitation  
Precipitation 0.03 in - - ()
Sea Level Pressure  
Sea Level Pressure 30.12 in    
Wind  
Wind Speed 6 mph ()    
Max Wind Speed 12 mph    
Max Gust Speed -    
Visibility 7.8 miles    
Events Rain    
Averages and records for this station are not official NWS values.
T = Trace of Precipitation, MM = Missing Value Source: Averaged Metar Reports

Daily Weather History Graph

Daily Weather History Graph

Search for Another Location

Airport or City:

Trip Planner

Search our weather history database for the weather conditions in past years. The results will help you decide how hot, cold, wet, or windy it might be!

Date:

Astronomy

Oct. 16, 2010 Rise Set
Actual Time 7:27 AM BST 6:06 PM BST
Civil Twilight 6:53 AM BST 6:40 PM BST
Nautical Twilight 6:14 AM BST 7:19 PM BST
Astronomical Twilight 5:35 AM BST 7:57 PM BST
Moon 3:32 PM BST (10/16) 12:19 AM BST (10/16)
Length of Visible Light 11h 47m
Length of Day
10h 39m
Waxing Gibbous, 65% of the Moon is Illuminated
Oct 16
Waxing Gibbous
Oct 23
Full
Oct 30
Last Quarter
Nov 6
New
Nov 13
First Quarter

Hourly Weather History & Observations

Time (BST) Temp. Windchill Dew Point Humidity Pressure Visibility Wind Dir Wind Speed Gust Speed Precip Events Conditions
12:20 AM 48.2 °F - 44.6 °F 87% 30.01 in - NW 4.6 mph - N/A   Clear
12:50 AM 47 °F - 46 °F 92% 30.02 in 10 mi NW 4.6 mph - -   Overcast
12:50 AM 46.4 °F 44.3 °F 44.6 °F 93% 30.01 in - NW 4.6 mph - N/A   Clear
1:20 AM 46.4 °F 44.3 °F 44.6 °F 93% 30.01 in - NW 4.6 mph - N/A   Clear
1:50 AM 46.4 °F 44.3 °F 44.6 °F 93% 30.04 in - NW 4.6 mph - N/A   Clear
2:20 AM 46.4 °F 43.5 °F 42.8 °F 87% 30.04 in - NW 5.8 mph - N/A   Clear
2:50 AM 46.4 °F 42.9 °F 42.8 °F 87% 30.04 in - NW 6.9 mph - N/A   Clear
3:20 AM 44.6 °F 41.4 °F 42.8 °F 93% 30.04 in - NW 5.8 mph - N/A   Clear
3:50 AM 45 °F - 43 °F 91% 30.03 in 7 mi NW 3.5 mph - -  
3:50 AM 44.6 °F 42.2 °F 42.8 °F 93% 30.04 in 5.6 mi NW 4.6 mph - N/A   Unknown
4:20 AM 44.6 °F 42.2 °F 42.8 °F 93% 30.04 in - NW 4.6 mph - N/A   Clear
4:50 AM 44.6 °F 42.2 °F 42.8 °F 93% 30.04 in - NW 4.6 mph - N/A   Clear
5:20 AM 44.6 °F 41.4 °F 41.0 °F 87% 30.04 in - NW 5.8 mph - N/A   Clear
5:50 AM 44.6 °F 42.2 °F 41.0 °F 87% 30.04 in - NW 4.6 mph - N/A   Clear
6:20 AM 44.6 °F 42.2 °F 41.0 °F 87% 30.06 in - NW 4.6 mph - N/A   Clear
6:50 AM 44 °F - 42 °F 90% 30.07 in 7 mi NW 4.6 mph - -  
6:50 AM 42.8 °F 39.3 °F 41.0 °F 93% 30.06 in - NW 5.8 mph - N/A   Clear
7:20 AM 44.6 °F 41.4 °F 41.0 °F 87% 30.06 in 6.2 mi NNW 5.8 mph - N/A   Scattered Clouds
7:50 AM 44.6 °F 40.7 °F 42.8 °F 93% 30.06 in 6.2 mi NW 6.9 mph - N/A   Scattered Clouds
8:20 AM 46.4 °F 43.5 °F 42.8 °F 87% 30.09 in 6.2 mi NNW 5.8 mph - N/A   Scattered Clouds
8:50 AM 46.4 °F 43.5 °F 44.6 °F 93% 30.09 in 6.2 mi NNW 5.8 mph - N/A   Scattered Clouds
9:20 AM 48.2 °F - 44.6 °F 87% 30.09 in 6.2 mi North 6.9 mph - N/A   Scattered Clouds
9:50 AM 49 °F - 44 °F 77% 30.11 in 12 mi North 8.1 mph - -   Scattered Clouds
9:50 AM 50.0 °F - 44.6 °F 82% 30.09 in 6.2 mi North 8.1 mph - N/A   Scattered Clouds
10:20 AM 51.8 °F - 44.6 °F 76% 30.12 in 6.2 mi North 10.4 mph - N/A   Partly Cloudy
10:50 AM 51.8 °F - 46.4 °F 82% 30.12 in 6.2 mi North 10.4 mph - N/A   Scattered Clouds
11:20 AM 53.6 °F - 46.4 °F 77% 30.12 in 6.2 mi North 10.4 mph - N/A   Mostly Cloudy
11:50 AM 53.6 °F - 44.6 °F 72% 30.12 in 6.2 mi North 8.1 mph - N/A   Scattered Clouds
12:20 PM 53.6 °F - 44.6 °F 72% 30.12 in 6.2 mi North 11.5 mph - N/A   Scattered Clouds
12:50 PM 55 °F - 44 °F 57% 30.13 in 19 mi NNE 11.5 mph - - Rain Rain
12:50 PM 55.4 °F - 44.6 °F 67% 30.12 in 6.2 mi NNE 10.4 mph - N/A   Scattered Clouds
1:20 PM 55.4 °F - 44.6 °F 67% 30.12 in 6.2 mi NNE 9.2 mph - N/A   Scattered Clouds
1:50 PM 53.6 °F - 46.4 °F 77% 30.12 in 6.2 mi NNE 11.5 mph - N/A Rain Light Rain Showers
2:20 PM 51.8 °F - 44.6 °F 76% 30.12 in 6.2 mi NNE 4.6 mph - N/A   Scattered Clouds
2:50 PM 55.4 °F - 44.6 °F 67% 30.12 in 6.2 mi NNE 9.2 mph - N/A   Scattered Clouds
3:20 PM 55.4 °F - 44.6 °F 67% 30.12 in 6.2 mi North 9.2 mph - N/A   Mostly Cloudy
3:50 PM 53 °F - 45 °F 65% 30.16 in 19 mi NNE 8.1 mph - - Rain Rain
3:50 PM 53.6 °F - 42.8 °F 67% 30.15 in 6.2 mi NNE 8.1 mph - N/A   Mostly Cloudy
4:20 PM 53.6 °F - 42.8 °F 67% 30.15 in 6.2 mi NNE 8.1 mph - N/A   Scattered Clouds
4:50 PM 53.6 °F - 42.8 °F 67% 30.15 in 6.2 mi NNE 8.1 mph - N/A   Partly Cloudy
5:20 PM 53.6 °F - 41.0 °F 62% 30.15 in 6.2 mi North 9.2 mph - N/A   Partly Cloudy
5:50 PM 51.8 °F - 39.2 °F 62% 30.18 in 6.2 mi North 5.8 mph - N/A   Partly Cloudy
6:20 PM 51.8 °F - 39.2 °F 62% 30.18 in 6.2 mi North 5.8 mph - N/A   Partly Cloudy
6:50 PM 49 °F - 39 °F 59% 30.21 in 16 mi NNE 6.9 mph - -  
6:50 PM 50.0 °F - 39.2 °F 66% 30.21 in 6.2 mi NNE 6.9 mph - N/A   Partly Cloudy
7:20 PM 50.0 °F - 39.2 °F 66% 30.21 in 6.2 mi North 5.8 mph - N/A   Partly Cloudy
7:50 PM 48.2 °F - 39.2 °F 71% 30.21 in - North 4.6 mph - N/A   Clear
8:20 PM 48.2 °F - 39.2 °F 71% 30.24 in - North 5.8 mph - N/A   Clear
8:50 PM 46.4 °F 44.3 °F 39.2 °F 76% 30.24 in - North 4.6 mph - N/A   Clear
9:20 PM 46.4 °F 45.2 °F 37.4 °F 71% 30.24 in - Variable 3.5 mph - N/A   Clear
9:50 PM 44 °F - 38 °F 71% 30.27 in 14 mi NNE 4.6 mph - -  
9:50 PM 44.6 °F 43.1 °F 37.4 °F 76% 30.27 in - Variable 3.5 mph - N/A   Clear
10:20 PM 44.6 °F 41.4 °F 37.4 °F 76% 30.27 in - North 5.8 mph - N/A   Clear
10:50 PM 42.8 °F 39.3 °F 35.6 °F 76% 30.27 in - NNE 5.8 mph - N/A   Clear
11:20 PM 42.8 °F 40.1 °F 35.6 °F 76% 30.27 in - North 4.6 mph - N/A   Clear
11:50 PM 42.8 °F 39.3 °F 35.6 °F 76% 30.27 in - North 5.8 mph - N/A   Clear